Time,TemperatureF,DewpointF,PressureIn,WindDirection,WindDirectionDegrees,WindSpeedMPH,WindSpeedGustMPH,Humidity,HourlyPrecipIn,Conditions,Clouds,dailyrainin,SoftwareType,DateUTC
2013-03-27 00:57:00,45.7,40.2,29.88,North,0,0.0,0.0,81,0.00,,,0.00,WUHU21623XXSP,2013-03-27 07:57:00,
2013-03-27 01:57:00,45.0,40.1,29.88,North,0,0.0,0.0,83,0.00,,,0.00,WUHU21623XXSP,2013-03-27 08:57:00,
2013-03-27 02:57:00,45.5,40.6,29.87,North,0,0.0,0.0,83,0.00,,,0.00,WUHU21623XXSP,2013-03-27 09:57:00,
2013-03-27 03:57:00,45.1,40.2,29.86,North,0,0.0,0.0,83,0.00,,,0.00,WUHU21623XXSP,2013-03-27 10:57:00,
2013-03-27 04:57:00,45.7,41.1,29.86,North,0,0.0,0.0,84,0.00,,,0.00,WUHU21623XXSP,2013-03-27 11:57:00,
2013-03-27 05:57:00,46.2,41.6,29.86,North,0,0.0,0.0,84,0.00,,,0.00,WUHU21623XXSP,2013-03-27 12:57:00,
2013-03-27 07:02:00,45.9,41.3,29.87,North,0,0.0,0.0,84,0.00,,,0.00,WUHU21623XXSP,2013-03-27 14:02:00,
2013-03-27 07:07:00,45.7,41.1,29.86,North,0,0.0,0.0,84,0.00,,,0.00,WUHU21623XXSP,2013-03-27 14:07:00,
2013-03-27 07:12:00,45.5,41.0,29.87,North,0,0.0,0.0,84,0.00,,,0.00,WUHU21623XXSP,2013-03-27 14:12:00,
2013-03-27 07:17:00,45.3,41.1,29.87,North,0,0.0,0.0,85,0.00,,,0.00,WUHU21623XXSP,2013-03-27 14:17:00,
2013-03-27 07:22:00,45.3,41.1,29.87,North,0,0.0,0.0,85,0.00,,,0.00,WUHU21623XXSP,2013-03-27 14:22:00,
2013-03-27 07:27:00,45.3,41.1,29.87,North,0,0.0,0.0,85,0.00,,,0.00,WUHU21623XXSP,2013-03-27 14:27:00,
2013-03-27 07:32:00,45.3,41.1,29.87,North,0,0.0,0.0,85,0.00,,,0.00,WUHU21623XXSP,2013-03-27 14:32:00,
2013-03-27 07:37:00,45.5,41.3,29.87,North,0,0.0,0.0,85,0.00,,,0.00,WUHU21623XXSP,2013-03-27 14:37:00,
2013-03-27 07:42:00,45.7,41.5,29.87,North,0,0.0,0.0,85,0.00,,,0.00,WUHU21623XXSP,2013-03-27 14:42:00,
2013-03-27 07:47:00,46.0,41.8,29.87,North,0,0.0,0.0,85,0.00,,,0.00,WUHU21623XXSP,2013-03-27 14:47:00,
2013-03-27 07:52:00,46.2,42.3,29.87,North,0,0.0,0.0,86,0.00,,,0.00,WUHU21623XXSP,2013-03-27 14:52:00,
2013-03-27 07:57:00,46.6,42.6,29.87,North,0,0.0,0.0,86,0.00,,,0.00,WUHU21623XXSP,2013-03-27 14:57:00,
2013-03-27 08:02:00,47.1,43.2,29.87,North,0,0.0,0.0,85,0.00,,,0.00,WUHU21623XXSP,2013-03-27 15:02:00,
2013-03-27 08:08:00,47.5,43.2,29.87,North,0,0.0,0.0,85,0.00,,,0.00,WUHU21623XXSP,2013-03-27 15:08:00,
2013-03-27 08:13:00,47.8,43.5,29.87,North,0,0.0,0.0,85,0.00,,,0.00,WUHU21623XXSP,2013-03-27 15:13:00,
2013-03-27 08:18:00,48.0,43.7,29.87,North,0,0.0,0.0,85,0.00,,,0.00,WUHU21623XXSP,2013-03-27 15:18:00,
2013-03-27 08:23:00,48.4,43.7,29.87,North,0,0.0,0.0,84,0.00,,,0.00,WUHU21623XXSP,2013-03-27 15:23:00,
2013-03-27 08:28:00,48.7,44.1,29.88,North,0,0.0,0.0,84,0.00,,,0.00,WUHU21623XXSP,2013-03-27 15:28:00,
2013-03-27 08:32:00,48.9,44.2,29.87,North,0,0.0,0.0,84,0.00,,,0.00,WUHU21623XXSP,2013-03-27 15:32:00,
2013-03-27 08:38:00,49.1,44.1,29.87,North,0,0.0,0.0,83,0.00,,,0.00,WUHU21623XXSP,2013-03-27 15:38:00,
2013-03-27 08:43:00,49.5,44.4,29.87,North,0,0.0,0.0,83,0.00,,,0.00,WUHU21623XXSP,2013-03-27 15:43:00,
2013-03-27 08:48:00,49.6,44.6,29.87,North,0,0.0,0.0,83,0.00,,,0.00,WUHU21623XXSP,2013-03-27 15:48:00,
2013-03-27 08:53:00,50.0,45.0,29.87,North,0,0.0,0.0,83,0.00,,,0.00,WUHU21623XXSP,2013-03-27 15:53:00,
2013-03-27 08:58:00,50.4,45.0,29.87,North,0,0.0,0.0,82,0.00,,,0.00,WUHU21623XXSP,2013-03-27 15:58:00,
2013-03-27 09:02:00,50.7,45.4,29.87,North,0,0.0,0.0,82,0.00,,,0.00,WUHU21623XXSP,2013-03-27 16:02:00,
2013-03-27 09:07:00,51.1,45.8,29.87,North,0,0.0,0.0,82,0.00,,,0.00,WUHU21623XXSP,2013-03-27 16:07:00,
2013-03-27 09:13:00,51.6,46.0,29.87,North,0,0.0,0.0,81,0.00,,,0.00,WUHU21623XXSP,2013-03-27 16:13:00,
2013-03-27 09:18:00,52.0,46.3,29.87,North,0,0.0,0.0,81,0.00,,,0.00,WUHU21623XXSP,2013-03-27 16:18:00,
2013-03-27 09:23:00,52.3,46.4,29.87,North,0,0.0,0.0,80,0.00,,,0.00,WUHU21623XXSP,2013-03-27 16:23:00,
2013-03-27 09:28:00,52.7,46.8,29.87,North,0,0.0,0.0,80,0.00,,,0.00,WUHU21623XXSP,2013-03-27 16:28:00,
2013-03-27 09:33:00,53.2,47.3,29.87,North,0,0.0,0.0,80,0.00,,,0.00,WUHU21623XXSP,2013-03-27 16:33:00,
2013-03-27 09:38:00,53.8,47.5,29.87,North,0,0.0,0.0,79,0.00,,,0.00,WUHU21623XXSP,2013-03-27 16:38:00,
2013-03-27 09:43:00,54.5,47.8,29.87,North,0,0.0,0.0,78,0.00,,,0.00,WUHU21623XXSP,2013-03-27 16:43:00,
2013-03-27 09:48:00,55.2,48.1,29.87,North,0,0.0,0.0,77,0.00,,,0.00,WUHU21623XXSP,2013-03-27 16:48:00,
2013-03-27 09:53:00,55.6,47.7,29.87,North,0,0.0,0.0,75,0.00,,,0.00,WUHU21623XXSP,2013-03-27 16:53:00,
2013-03-27 09:58:00,56.1,47.9,29.87,North,0,0.0,0.0,74,0.00,,,0.00,WUHU21623XXSP,2013-03-27 16:58:00,
2013-03-27 10:03:00,56.8,48.6,29.87,North,0,0.0,0.0,74,0.00,,,0.00,WUHU21623XXSP,2013-03-27 17:03:00,
2013-03-27 10:08:00,57.4,48.7,29.87,North,0,0.0,0.0,73,0.00,,,0.00,WUHU21623XXSP,2013-03-27 17:08:00,
2013-03-27 10:13:00,57.7,48.7,29.87,North,0,0.0,0.0,72,0.00,,,0.00,WUHU21623XXSP,2013-03-27 17:13:00,
2013-03-27 10:18:00,57.9,48.2,29.87,North,0,0.0,0.0,70,0.00,,,0.00,WUHU21623XXSP,2013-03-27 17:18:00,
2013-03-27 10:23:00,58.6,48.5,29.87,North,0,0.0,0.0,69,0.00,,,0.00,WUHU21623XXSP,2013-03-27 17:23:00,
2013-03-27 10:28:00,59.0,48.5,29.87,North,0,0.0,0.0,68,0.00,,,0.00,WUHU21623XXSP,2013-03-27 17:28:00,
2013-03-27 10:33:00,59.4,48.8,29.87,North,0,0.0,0.0,68,0.00,,,0.00,WUHU21623XXSP,2013-03-27 17:33:00,
2013-03-27 10:38:00,59.7,48.3,29.87,North,0,0.0,0.0,66,0.00,,,0.00,WUHU21623XXSP,2013-03-27 17:38:00,
2013-03-27 10:43:00,60.1,48.7,29.87,North,0,0.0,0.0,66,0.00,,,0.00,WUHU21623XXSP,2013-03-27 17:43:00,
2013-03-27 10:48:00,60.4,48.7,29.87,North,0,0.0,0.0,65,0.00,,,0.00,WUHU21623XXSP,2013-03-27 17:48:00,
2013-03-27 10:53:00,60.6,48.8,29.87,North,0,0.0,0.0,65,0.00,,,0.00,WUHU21623XXSP,2013-03-27 17:53:00,
2013-03-27 10:58:00,61.0,49.2,29.87,North,0,0.0,0.0,65,0.00,,,0.00,WUHU21623XXSP,2013-03-27 17:58:00,
2013-03-27 11:03:00,61.3,49.5,29.87,North,0,0.0,0.0,65,0.00,,,0.00,WUHU21623XXSP,2013-03-27 18:03:00,
2013-03-27 11:08:00,61.3,49.5,29.87,North,0,0.0,0.0,65,0.00,,,0.00,WUHU21623XXSP,2013-03-27 18:08:00,
2013-03-27 11:13:00,61.5,48.8,29.87,North,0,0.0,0.0,63,0.00,,,0.00,WUHU21623XXSP,2013-03-27 18:13:00,
2013-03-27 11:18:00,61.7,49.0,29.87,North,0,0.0,0.0,63,0.00,,,0.00,WUHU21623XXSP,2013-03-27 18:18:00,
2013-03-27 11:23:00,61.9,49.2,29.87,North,0,0.0,0.0,63,0.00,,,0.00,WUHU21623XXSP,2013-03-27 18:23:00,
2013-03-27 11:28:00,62.1,48.9,29.87,North,0,0.0,0.0,62,0.00,,,0.00,WUHU21623XXSP,2013-03-27 18:28:00,
2013-03-27 11:33:00,62.4,48.8,29.87,North,0,0.0,0.0,61,0.00,,,0.00,WUHU21623XXSP,2013-03-27 18:33:00,
2013-03-27 11:38:00,62.6,49.0,29.87,North,0,0.0,0.0,61,0.00,,,0.00,WUHU21623XXSP,2013-03-27 18:38:00,
2013-03-27 11:43:00,62.8,48.7,29.88,North,0,0.0,0.0,60,0.00,,,0.00,WUHU21623XXSP,2013-03-27 18:43:00,
2013-03-27 11:48:00,63.0,48.9,29.87,North,0,0.0,0.0,60,0.00,,,0.00,WUHU21623XXSP,2013-03-27 18:48:00,
2013-03-27 11:53:00,63.3,49.2,29.87,North,0,0.0,0.0,60,0.00,,,0.00,WUHU21623XXSP,2013-03-27 18:53:00,
2013-03-27 11:58:00,63.5,49.4,29.88,North,0,0.0,0.0,60,0.00,,,0.00,WUHU21623XXSP,2013-03-27 18:58:00,
2013-03-27 12:03:00,64.0,49.4,29.87,North,0,0.0,0.0,59,0.00,,,0.00,WUHU21623XXSP,2013-03-27 19:03:00,
2013-03-27 12:08:00,64.2,49.0,29.87,North,0,0.0,0.0,58,0.00,,,0.00,WUHU21623XXSP,2013-03-27 19:08:00,
2013-03-27 12:13:00,64.6,49.4,29.87,North,0,0.0,0.0,58,0.00,,,0.00,WUHU21623XXSP,2013-03-27 19:13:00,
2013-03-27 12:18:00,64.9,49.3,29.87,North,0,0.0,0.0,57,0.00,,,0.00,WUHU21623XXSP,2013-03-27 19:18:00,
2013-03-27 12:23:00,65.5,49.8,29.87,North,0,0.0,0.0,57,0.00,,,0.00,WUHU21623XXSP,2013-03-27 19:23:00,
2013-03-27 12:28:00,66.0,49.9,29.87,North,0,0.0,0.0,56,0.00,,,0.00,WUHU21623XXSP,2013-03-27 19:28:00,
2013-03-27 12:33:00,66.4,49.7,29.87,North,0,0.0,0.0,55,0.00,,,0.00,WUHU21623XXSP,2013-03-27 19:33:00,
2013-03-27 12:38:00,66.4,50.2,29.87,North,0,0.0,0.0,56,0.00,,,0.00,WUHU21623XXSP,2013-03-27 19:38:00,
2013-03-27 12:43:00,66.7,50.5,29.87,North,0,0.0,0.0,56,0.00,,,0.00,WUHU21623XXSP,2013-03-27 19:43:00,
2013-03-27 12:48:00,67.1,50.4,29.87,North,0,0.0,0.0,55,0.00,,,0.00,WUHU21623XXSP,2013-03-27 19:48:00,
2013-03-27 12:53:00,67.3,50.5,29.87,North,0,0.0,0.0,55,0.00,,,0.00,WUHU21623XXSP,2013-03-27 19:53:00,
2013-03-27 12:58:00,67.5,50.2,29.87,North,0,0.0,0.0,54,0.00,,,0.00,WUHU21623XXSP,2013-03-27 19:58:00,
2013-03-27 13:03:00,67.3,50.0,29.87,North,0,0.0,0.0,54,0.00,,,0.00,WUHU21623XXSP,2013-03-27 20:03:00,
2013-03-27 13:08:00,67.3,50.5,29.87,North,0,0.0,0.0,55,0.00,,,0.00,WUHU21623XXSP,2013-03-27 20:08:00,
2013-03-27 13:13:00,67.6,50.8,29.87,North,0,0.0,0.0,55,0.00,,,0.00,WUHU21623XXSP,2013-03-27 20:13:00,
2013-03-27 13:18:00,67.6,50.4,29.87,North,0,0.0,0.0,54,0.00,,,0.00,WUHU21623XXSP,2013-03-27 20:18:00,
2013-03-27 13:23:00,67.8,50.5,29.87,North,0,0.0,0.0,54,0.00,,,0.00,WUHU21623XXSP,2013-03-27 20:23:00,
2013-03-27 13:28:00,67.8,50.5,29.87,North,0,0.0,0.0,54,0.00,,,0.00,WUHU21623XXSP,2013-03-27 20:28:00,
2013-03-27 13:33:00,68.2,51.3,29.87,North,0,0.0,0.0,55,0.00,,,0.00,WUHU21623XXSP,2013-03-27 20:33:00,
2013-03-27 13:38:00,68.2,50.8,29.87,North,0,0.0,0.0,54,0.00,,,0.00,WUHU21623XXSP,2013-03-27 20:38:00,
2013-03-27 13:43:00,67.8,50.5,29.87,North,0,0.0,0.0,54,0.00,,,0.00,WUHU21623XXSP,2013-03-27 20:43:00,
2013-03-27 13:48:00,67.8,50.5,29.87,North,0,0.0,0.0,54,0.00,,,0.00,WUHU21623XXSP,2013-03-27 20:48:00,
2013-03-27 13:53:00,67.8,50.0,29.87,North,0,0.0,0.0,53,0.00,,,0.00,WUHU21623XXSP,2013-03-27 20:53:00,
2013-03-27 13:58:00,67.8,50.0,29.87,North,0,0.0,0.0,53,0.00,,,0.00,WUHU21623XXSP,2013-03-27 20:58:00,
2013-03-27 14:03:00,67.8,50.5,29.87,North,0,0.0,0.0,54,0.00,,,0.00,WUHU21623XXSP,2013-03-27 21:03:00,
2013-03-27 14:08:00,67.8,50.5,29.87,North,0,0.0,0.0,54,0.00,,,0.00,WUHU21623XXSP,2013-03-27 21:08:00,
2013-03-27 14:13:00,67.8,50.5,29.87,North,0,0.0,0.0,54,0.00,,,0.00,WUHU21623XXSP,2013-03-27 21:13:00,
2013-03-27 14:18:00,67.8,50.0,29.87,North,0,0.0,0.0,53,0.00,,,0.00,WUHU21623XXSP,2013-03-27 21:18:00,
2013-03-27 14:23:00,68.0,50.2,29.86,North,0,0.0,0.0,53,0.00,,,0.00,WUHU21623XXSP,2013-03-27 21:23:00,
2013-03-27 14:28:00,67.8,49.5,29.87,North,0,0.0,0.0,52,0.00,,,0.00,WUHU21623XXSP,2013-03-27 21:28:00,
2013-03-27 14:33:00,68.2,49.9,29.87,North,0,0.0,0.0,52,0.00,,,0.00,WUHU21623XXSP,2013-03-27 21:33:00,
2013-03-27 14:38:00,68.0,50.2,29.87,North,0,0.0,0.0,53,0.00,,,0.00,WUHU21623XXSP,2013-03-27 21:38:00,
2013-03-27 14:43:00,67.8,50.0,29.87,North,0,0.0,0.0,53,0.00,,,0.00,WUHU21623XXSP,2013-03-27 21:43:00,
2013-03-27 14:48:00,68.0,50.2,29.87,North,0,0.0,0.0,53,0.00,,,0.00,WUHU21623XXSP,2013-03-27 21:48:00,
2013-03-27 14:53:00,68.4,51.0,29.87,North,0,0.0,0.0,54,0.00,,,0.00,WUHU21623XXSP,2013-03-27 21:53:00,
2013-03-27 14:58:00,68.4,50.5,29.86,North,0,0.0,0.0,53,0.00,,,0.00,WUHU21623XXSP,2013-03-27 21:58:00,
2013-03-27 15:03:00,68.4,50.5,29.87,North,0,0.0,0.0,53,0.00,,,0.00,WUHU21623XXSP,2013-03-27 22:03:00,
2013-03-27 15:08:00,68.2,50.4,29.86,North,0,0.0,0.0,53,0.00,,,0.00,WUHU21623XXSP,2013-03-27 22:08:00,
2013-03-27 15:13:00,68.2,50.4,29.86,North,0,0.0,0.0,53,0.00,,,0.00,WUHU21623XXSP,2013-03-27 22:13:00,
2013-03-27 15:18:00,68.2,50.4,29.86,North,0,0.0,0.0,53,0.00,,,0.00,WUHU21623XXSP,2013-03-27 22:18:00,
2013-03-27 15:23:00,68.2,50.8,29.86,North,0,0.0,0.0,54,0.00,,,0.00,WUHU21623XXSP,2013-03-27 22:23:00,
2013-03-27 15:28:00,68.4,51.0,29.87,North,0,0.0,0.0,54,0.00,,,0.00,WUHU21623XXSP,2013-03-27 22:28:00,
2013-03-27 15:33:00,68.4,51.0,29.86,North,0,0.0,0.0,54,0.00,,,0.00,WUHU21623XXSP,2013-03-27 22:33:00,
2013-03-27 15:38:00,68.4,50.8,29.86,North,0,0.0,0.0,54,0.00,,,0.00,WUHU21623XXSP,2013-03-27 22:38:00,
2013-03-27 15:43:00,68.2,50.8,29.86,North,0,0.0,0.0,54,0.00,,,0.00,WUHU21623XXSP,2013-03-27 22:43:00,
2013-03-27 15:48:00,68.2,50.8,29.87,North,0,0.0,0.0,54,0.00,,,0.00,WUHU21623XXSP,2013-03-27 22:48:00,
2013-03-27 15:53:00,67.6,50.8,29.86,North,0,0.0,0.0,55,0.00,,,0.00,WUHU21623XXSP,2013-03-27 22:53:00,
2013-03-27 15:58:00,67.6,50.8,29.86,North,0,0.0,0.0,55,0.00,,,0.00,WUHU21623XXSP,2013-03-27 22:58:00,
2013-03-27 16:03:00,67.8,51.5,29.87,North,0,0.0,0.0,56,0.00,,,0.00,WUHU21623XXSP,2013-03-27 23:03:00,
2013-03-27 16:08:00,68.2,51.3,29.87,North,0,0.0,0.0,55,0.00,,,0.00,WUHU21623XXSP,2013-03-27 23:08:00,
2013-03-27 16:13:00,67.8,51.5,29.87,North,0,0.0,0.0,56,0.00,,,0.00,WUHU21623XXSP,2013-03-27 23:13:00,
2013-03-27 16:18:00,67.3,50.5,29.87,North,0,0.0,0.0,55,0.00,,,0.00,WUHU21623XXSP,2013-03-27 23:18:00,
2013-03-27 16:23:00,67.1,50.8,29.87,North,0,0.0,0.0,56,0.00,,,0.00,WUHU21623XXSP,2013-03-27 23:23:00,
2013-03-27 16:28:00,67.1,50.8,29.87,North,0,0.0,0.0,56,0.00,,,0.00,WUHU21623XXSP,2013-03-27 23:28:00,
2013-03-27 16:33:00,66.7,50.5,29.87,North,0,0.0,0.0,56,0.00,,,0.00,WUHU21623XXSP,2013-03-27 23:33:00,
2013-03-27 16:38:00,66.0,50.3,29.87,North,0,0.0,0.0,57,0.00,,,0.00,WUHU21623XXSP,2013-03-27 23:38:00,
2013-03-27 16:43:00,65.7,50.5,29.87,North,0,0.0,0.0,58,0.00,,,0.00,WUHU21623XXSP,2013-03-27 23:43:00,
2013-03-27 16:48:00,65.5,50.3,29.87,North,0,0.0,0.0,58,0.00,,,0.00,WUHU21623XXSP,2013-03-27 23:48:00,
2013-03-27 16:53:00,65.8,50.6,29.87,North,0,0.0,0.0,58,0.00,,,0.00,WUHU21623XXSP,2013-03-27 23:53:00,
2013-03-27 16:58:00,65.5,50.3,29.87,North,0,0.0,0.0,58,0.00,,,0.00,WUHU21623XXSP,2013-03-27 23:58:00,
2013-03-27 17:03:00,65.5,50.8,29.87,North,0,0.0,0.0,59,0.00,,,0.00,WUHU21623XXSP,2013-03-28 00:03:00,
2013-03-27 17:08:00,65.8,50.6,29.87,North,0,0.0,0.0,58,0.00,,,0.00,WUHU21623XXSP,2013-03-28 00:08:00,
2013-03-27 17:13:00,65.8,51.1,29.87,North,0,0.0,0.0,59,0.00,,,0.00,WUHU21623XXSP,2013-03-28 00:13:00,
2013-03-27 17:18:00,66.0,51.3,29.87,North,0,0.0,0.0,59,0.00,,,0.00,WUHU21623XXSP,2013-03-28 00:18:00,
2013-03-27 17:23:00,66.0,51.3,29.87,North,0,0.0,0.0,59,0.00,,,0.00,WUHU21623XXSP,2013-03-28 00:23:00,
2013-03-27 17:28:00,65.8,51.1,29.87,North,0,0.0,0.0,59,0.00,,,0.00,WUHU21623XXSP,2013-03-28 00:28:00,
2013-03-27 17:33:00,65.8,51.1,29.87,North,0,0.0,0.0,59,0.00,,,0.00,WUHU21623XXSP,2013-03-28 00:33:00,
2013-03-27 17:38:00,66.0,51.3,29.87,North,0,0.0,0.0,59,0.00,,,0.00,WUHU21623XXSP,2013-03-28 00:38:00,
2013-03-27 17:43:00,65.7,51.4,29.87,North,0,0.0,0.0,60,0.00,,,0.00,WUHU21623XXSP,2013-03-28 00:43:00,
2013-03-27 17:48:00,65.1,50.9,29.87,North,0,0.0,0.0,60,0.00,,,0.00,WUHU21623XXSP,2013-03-28 00:48:00,
2013-03-27 17:53:00,64.9,51.1,29.87,North,0,0.0,0.0,61,0.00,,,0.00,WUHU21623XXSP,2013-03-28 00:53:00,
2013-03-27 17:58:00,64.2,50.4,29.87,North,0,0.0,0.0,61,0.00,,,0.00,WUHU21623XXSP,2013-03-28 00:58:00,
2013-03-27 18:03:00,64.0,50.7,29.87,North,0,0.0,0.0,62,0.00,,,0.00,WUHU21623XXSP,2013-03-28 01:03:00,
2013-03-27 18:08:00,63.5,50.2,29.87,North,0,0.0,0.0,62,0.00,,,0.00,WUHU21623XXSP,2013-03-28 01:08:00,
2013-03-27 18:13:00,63.3,50.5,29.88,North,0,0.0,0.0,63,0.00,,,0.00,WUHU21623XXSP,2013-03-28 01:13:00,
2013-03-27 18:18:00,63.3,50.9,29.88,North,0,0.0,0.0,64,0.00,,,0.00,WUHU21623XXSP,2013-03-28 01:18:00,
2013-03-27 18:23:00,63.7,51.2,29.88,North,0,0.0,0.0,64,0.00,,,0.00,WUHU21623XXSP,2013-03-28 01:23:00,
2013-03-27 18:28:00,63.9,51.8,29.88,North,0,0.0,0.0,65,0.00,,,0.00,WUHU21623XXSP,2013-03-28 01:28:00,
2013-03-27 18:33:00,63.7,51.7,29.88,North,0,0.0,0.0,65,0.00,,,0.00,WUHU21623XXSP,2013-03-28 01:33:00,
2013-03-27 18:38:00,63.3,50.9,29.88,North,0,0.0,0.0,64,0.00,,,0.00,WUHU21623XXSP,2013-03-28 01:38:00,
2013-03-27 18:43:00,62.8,50.8,29.88,North,0,0.0,0.0,65,0.00,,,0.00,WUHU21623XXSP,2013-03-28 01:43:00,
2013-03-27 18:48:00,62.2,50.7,29.88,North,0,0.0,0.0,66,0.00,,,0.00,WUHU21623XXSP,2013-03-28 01:48:00,
2013-03-27 18:53:00,61.7,50.2,29.89,North,0,0.0,0.0,66,0.00,,,0.00,WUHU21623XXSP,2013-03-28 01:53:00,
2013-03-27 18:58:00,61.3,50.3,29.89,North,0,0.0,0.0,67,0.00,,,0.00,WUHU21623XXSP,2013-03-28 01:58:00,
2013-03-27 19:03:00,61.0,50.0,29.89,North,0,0.0,0.0,67,0.00,,,0.00,WUHU21623XXSP,2013-03-28 02:03:00,
2013-03-27 19:08:00,60.6,49.7,29.89,North,0,0.0,0.0,67,0.00,,,0.00,WUHU21623XXSP,2013-03-28 02:08:00,
2013-03-27 19:13:00,60.3,49.3,29.89,North,0,0.0,0.0,67,0.00,,,0.00,WUHU21623XXSP,2013-03-28 02:13:00,
2013-03-27 19:18:00,59.9,49.5,29.89,North,0,0.0,0.0,68,0.00,,,0.00,WUHU21623XXSP,2013-03-28 02:18:00,
2013-03-27 19:23:00,59.7,49.2,29.90,North,0,0.0,0.0,68,0.00,,,0.00,WUHU21623XXSP,2013-03-28 02:23:00,
2013-03-27 19:28:00,59.4,48.8,29.89,North,0,0.0,0.0,68,0.00,,,0.00,WUHU21623XXSP,2013-03-28 02:28:00,
2013-03-27 19:33:00,59.2,49.0,29.89,North,0,0.0,0.0,69,0.00,,,0.00,WUHU21623XXSP,2013-03-28 02:33:00,
2013-03-27 19:38:00,58.8,48.7,29.89,North,0,0.0,0.0,69,0.00,,,0.00,WUHU21623XXSP,2013-03-28 02:38:00,
2013-03-27 19:43:00,58.5,48.3,29.90,North,0,0.0,0.0,69,0.00,,,0.00,WUHU21623XXSP,2013-03-28 02:43:00,
2013-03-27 19:48:00,58.1,48.4,29.89,North,0,0.0,0.0,70,0.00,,,0.00,WUHU21623XXSP,2013-03-28 02:48:00,
2013-03-27 19:53:00,57.7,48.4,29.89,North,0,0.0,0.0,71,0.00,,,0.00,WUHU21623XXSP,2013-03-28 02:53:00,
2013-03-27 19:58:00,57.0,47.7,29.90,North,0,0.0,0.0,71,0.00,,,0.00,WUHU21623XXSP,2013-03-28 02:58:00,
2013-03-27 20:03:00,56.8,47.9,29.90,North,0,0.0,0.0,72,0.00,,,0.00,WUHU21623XXSP,2013-03-28 03:03:00,
2013-03-27 20:08:00,56.3,47.4,29.90,North,0,0.0,0.0,72,0.00,,,0.00,WUHU21623XXSP,2013-03-28 03:08:00,
2013-03-27 20:13:00,55.9,47.4,29.90,North,0,0.0,0.0,73,0.00,,,0.00,WUHU21623XXSP,2013-03-28 03:13:00,
2013-03-27 20:18:00,55.4,46.9,29.90,North,0,0.0,0.0,73,0.00,,,0.00,WUHU21623XXSP,2013-03-28 03:18:00,
2013-03-27 20:23:00,55.2,47.0,29.90,North,0,0.0,0.0,74,0.00,,,0.00,WUHU21623XXSP,2013-03-28 03:23:00,
2013-03-27 20:28:00,55.0,46.9,29.90,North,0,0.0,0.0,74,0.00,,,0.00,WUHU21623XXSP,2013-03-28 03:28:00,
2013-03-27 20:33:00,54.9,47.0,29.90,North,0,0.0,0.0,75,0.00,,,0.00,WUHU21623XXSP,2013-03-28 03:33:00,
2013-03-27 20:38:00,54.7,46.9,29.90,North,0,0.0,0.0,75,0.00,,,0.00,WUHU21623XXSP,2013-03-28 03:38:00,
2013-03-27 20:43:00,54.9,47.0,29.90,North,0,0.0,0.0,75,0.00,,,0.00,WUHU21623XXSP,2013-03-28 03:43:00,
2013-03-27 20:48:00,54.9,47.0,29.91,North,0,0.0,0.0,75,0.00,,,0.00,WUHU21623XXSP,2013-03-28 03:48:00,
2013-03-27 20:53:00,55.0,47.6,29.91,North,0,0.0,0.0,76,0.00,,,0.00,WUHU21623XXSP,2013-03-28 03:53:00,
2013-03-27 20:58:00,55.0,47.6,29.91,North,0,0.0,0.0,76,0.00,,,0.00,WUHU21623XXSP,2013-03-28 03:58:00,
2013-03-27 21:00:00,55.0,47.6,29.91,North,0,0.0,0.0,76,0.00,,,0.00,WUHU21623XXSP,2013-03-28 04:00:00,
2013-03-27 21:57:00,55.0,48.0,29.92,North,0,0.0,0.0,77,0.00,,,0.00,WUHU21623XXSP,2013-03-28 04:57:00,
2013-03-27 22:57:00,54.9,47.9,29.91,North,0,0.0,0.0,77,0.00,,,0.00,WUHU21623XXSP,2013-03-28 05:57:00,
2013-03-27 23:57:00,54.3,48.0,29.92,North,0,0.0,0.0,79,0.00,,,0.00,WUHU21623XXSP,2013-03-28 06:57:00,